"startDT [UTC]","vpos","CH4 [ppm]","stdev(CH4) [ppm]","CO2 [ppm]","stdev(CO2) [ppm]","H2O [ppm]","stdev(H2O)","p_LGR [torr]","T_LGR [C]","mt1_LGR [us]","mt2_LGR [us]","T_ECpre [C]","T_EC1 [C]","T_EC2 [C]","p_inlet [hPa]","p_in [hPa]","p_out [hPa]","T_inlet [C]","RH_inlet [%]","dwpt_inlet [C]","T_vent [C]","RH_vent [%]","dwpt_vent [C]","flow_vent [l min-1]","flow_inlet [l min-1]","dwpt_sample [C]","T_room [C]"
2012-12-04 00:00:00,0.0,1.9242,0.0008,-1.00,0.00,-1.0,0.0,138.25,21.90,24.61,36.43,0.04,-272.74,-272.74,-33,566,-936,16.9,1.3,-37.3,17.0,1.3,-36.8,5.73,2.42,-34.0,22.3
2012-12-04 00:01:00,0.0,1.9241,0.0008,-1.00,0.00,-1.0,0.0,138.24,21.90,24.61,36.43,0.04,-272.74,-272.74,-33,566,-936,16.9,1.3,-37.2,17.0,1.3,-36.8,5.73,2.50,-34.0,22.3
2012-12-04 00:02:00,0.0,1.9238,0.0009,-1.00,0.00,-1.0,0.0,138.24,21.90,24.61,36.43,0.04,-272.74,-272.74,-33,567,-936,16.9,1.3,-37.2,17.0,1.4,-36.7,5.73,2.45,-34.0,22.3
2012-12-04 00:03:00,0.0,1.9239,0.0010,-1.00,0.00,-1.0,0.0,138.24,21.90,24.61,36.43,0.04,-272.74,-272.74,-33,567,-936,16.9,1.3,-37.1,17.0,1.4,-36.6,5.73,2.45,-34.0,22.3
2012-12-04 00:04:00,0.0,1.9237,0.0007,-1.00,0.00,-1.0,0.0,138.24,21.91,24.61,36.43,0.04,-272.74,-272.74,-33,567,-936,16.9,1.3,-37.0,17.0,1.4,-36.6,5.73,2.49,-34.0,22.3
2012-12-04 00:05:00,0.0,1.9235,0.0009,-1.00,0.00,-1.0,0.0,138.25,21.91,24.61,36.43,0.04,-272.74,-272.74,-33,567,-936,16.9,1.3,-36.9,17.0,1.4,-36.4,5.73,2.42,-34.1,22.3
2012-12-04 00:06:00,0.0,1.9239,0.0010,-1.00,0.00,-1.0,0.0,138.24,21.92,24.61,36.43,0.04,-272.74,-272.74,-33,567,-936,16.9,1.3,-36.8,17.0,1.4,-36.4,5.73,2.52,-34.1,22.3
2012-12-04 00:07:00,0.0,1.9234,0.0009,-1.00,0.00,-1.0,0.0,138.24,21.92,24.61,36.43,0.04,-272.74,-272.74,-33,567,-936,16.9,1.3,-36.8,17.0,1.4,-36.3,5.73,2.39,-34.1,22.3
2012-12-04 00:08:00,0.0,1.9238,0.0010,-1.00,0.00,-1.0,0.0,138.24,21.93,24.61,36.43,0.04,-272.74,-272.74,-33,567,-936,16.9,1.4,-36.6,17.0,1.4,-36.2,5.73,2.54,-34.1,22.3
2012-12-04 00:09:00,0.0,1.9236,0.0011,-1.00,0.00,-1.0,0.0,138.24,21.93,24.61,36.43,0.04,-272.74,-272.74,-33,567,-936,16.9,1.4,-36.6,17.0,1.4,-36.2,5.73,2.39,-34.1,22.3
2012-12-04 00:10:00,0.0,1.9231,0.0010,-1.00,0.00,-1.0,0.0,138.24,21.93,24.61,36.43,0.04,-272.74,-272.74,-33,567,-936,16.9,1.4,-36.7,17.0,1.4,-36.2,5.73,2.53,-34.1,22.3
2012-12-04 00:11:00,0.0,1.9234,0.0009,-1.00,0.00,-1.0,0.0,138.24,21.93,24.61,36.43,0.04,-272.74,-272.74,-33,567,-936,16.9,1.4,-36.6,17.0,1.4,-36.2,5.73,2.41,-34.1,22.3
2012-12-04 00:12:00,0.0,1.9228,0.0009,-1.00,0.00,-1.0,0.0,138.24,21.93,24.61,36.43,0.04,-272.74,-272.74,-33,567,-936,16.9,1.4,-36.6,17.0,1.4,-36.1,5.73,2.52,-34.1,22.3
2012-12-04 00:13:00,0.0,1.9235,0.0010,-1.00,0.00,-1.0,0.0,138.24,21.94,24.61,36.43,0.04,-272.74,-272.74,-33,567,-936,16.9,1.4,-36.6,17.0,1.4,-36.2,5.73,2.43,-34.1,22.3
2012-12-04 00:14:00,0.0,1.9233,0.0010,-1.00,0.00,-1.0,0.0,138.24,21.94,24.61,36.42,0.04,-272.74,-272.74,-33,567,-936,17.0,1.3,-36.8,17.1,1.4,-36.3,5.73,2.49,-34.1,22.3
2012-12-04 00:15:00,0.0,1.9236,0.0009,-1.00,0.00,-1.0,0.0,138.24,21.94,24.61,36.42,0.04,-272.73,-272.74,-33,567,-936,17.0,1.3,-36.9,17.1,1.4,-36.4,5.73,2.45,-34.1,22.3
2012-12-04 00:16:00,0.0,1.9233,0.0008,-1.00,0.00,-1.0,0.0,138.24,21.95,24.61,36.43,0.04,-272.74,-272.74,-33,567,-936,17.0,1.3,-37.1,17.1,1.3,-36.7,5.73,2.45,-34.1,22.3
2012-12-04 00:17:00,0.0,1.9243,0.0009,-1.00,0.00,-1.0,0.0,138.24,21.95,24.61,36.43,0.04,-272.74,-272.74,-33,567,-936,16.9,1.3,-37.4,17.1,1.3,-36.9,5.73,2.49,-34.1,22.3
2012-12-04 00:18:00,0.0,1.9240,0.0010,-1.00,0.00,-1.0,0.0,138.24,21.95,24.61,36.43,0.04,-272.74,-272.74,-33,567,-936,17.0,1.3,-37.4,17.1,1.3,-36.9,5.73,2.41,-34.1,22.3
2012-12-04 00:19:00,0.0,1.9238,0.0010,-1.00,0.00,-1.0,0.0,138.24,21.96,24.61,36.43,0.04,-272.74,-272.74,-33,567,-936,17.0,1.3,-37.5,17.1,1.3,-37.0,5.73,2.53,-34.1,22.3
2012-12-04 00:20:00,0.0,1.9240,0.0008,-1.00,0.00,-1.0,0.0,138.24,21.96,24.61,36.42,0.04,-272.74,-272.74,-33,567,-936,16.9,1.3,-37.5,17.0,1.3,-37.0,5.73,2.39,-34.1,22.3
2012-12-04 00:21:00,0.0,1.9236,0.0009,-1.00,0.00,-1.0,0.0,138.24,21.96,24.61,36.43,0.04,-272.74,-272.74,-33,567,-936,17.0,1.2,-37.6,17.1,1.3,-37.1,5.73,2.53,-34.1,22.3
2012-12-04 00:22:00,0.0,1.9238,0.0011,-1.00,0.00,-1.0,0.0,138.24,21.96,24.61,36.43,0.04,-272.74,-272.74,-33,567,-936,17.0,1.2,-37.6,17.1,1.3,-37.2,5.73,2.39,-34.1,22.3
2012-12-04 00:23:00,0.0,1.9236,0.0010,-1.00,0.00,-1.0,0.0,138.24,21.97,24.61,36.43,0.04,-272.74,-272.74,-34,567,-936,17.0,1.2,-37.9,17.1,1.3,-37.2,5.73,2.54,-34.1,22.3
2012-12-04 00:24:00,0.0,1.9244,0.0010,-1.00,0.00,-1.0,0.0,138.24,21.97,24.61,36.42,0.04,-272.74,-272.74,-33,567,-936,17.0,1.2,-37.9,17.1,1.3,-37.2,5.73,2.39,-34.1,22.3
2012-12-04 00:25:00,0.0,1.9243,0.0009,-1.00,0.00,-1.0,0.0,138.24,21.97,24.61,36.44,0.04,-272.74,-272.74,-33,567,-936,17.0,1.2,-37.8,17.1,1.3,-37.2,5.73,2.52,-34.1,22.3
2012-12-04 00:26:00,0.0,1.9244,0.0009,-1.00,0.00,-1.0,0.0,138.24,21.97,24.61,36.44,0.04,-272.74,-272.74,-33,567,-936,17.0,1.2,-37.7,17.1,1.3,-37.2,5.73,2.41,-34.1,22.4
2012-12-04 00:27:00,0.0,1.9243,0.0007,-1.00,0.00,-1.0,0.0,138.24,21.98,24.60,36.44,0.04,-272.74,-272.74,-33,567,-936,17.0,1.2,-37.5,17.1,1.3,-37.1,5.73,2.51,-34.1,22.3
2012-12-04 00:28:00,0.0,1.9242,0.0008,-1.00,0.00,-1.0,0.0,138.24,21.98,24.61,36.43,0.04,-272.73,-272.73,-33,567,-936,17.0,1.3,-37.4,17.1,1.3,-37.0,5.73,2.44,-34.1,22.3
2012-12-04 00:29:00,0.0,1.9241,0.0008,-1.00,0.00,-1.0,0.0,138.24,21.98,24.61,36.43,0.04,-272.74,-272.74,-33,567,-936,17.0,1.3,-37.4,17.1,1.3,-36.9,5.73,2.46,-34.1,22.4
2012-12-04 00:30:00,0.0,1.9242,0.0011,-1.00,0.00,-1.0,0.0,138.24,21.98,24.61,36.44,0.04,-272.74,-272.74,-33,567,-936,17.0,1.3,-37.2,17.1,1.3,-36.8,5.73,2.49,-34.0,22.3
2012-12-04 00:31:00,0.0,1.9241,0.0008,-1.00,0.00,-1.0,0.0,138.24,21.98,24.61,36.43,0.04,-272.73,-272.74,-33,567,-936,17.0,1.3,-37.1,17.1,1.4,-36.6,5.73,2.42,-34.1,22.3
2012-12-04 00:32:00,0.0,1.9241,0.0009,-1.00,0.00,-1.0,0.0,138.24,21.99,24.61,36.43,0.04,-272.74,-272.74,-33,567,-936,17.0,1.3,-37.0,17.1,1.4,-36.5,5.73,2.52,-34.0,22.3
2012-12-04 00:33:00,0.0,1.9238,0.0009,-1.00,0.00,-1.0,0.0,138.24,21.99,24.61,36.43,0.04,-272.74,-272.74,-33,567,-936,17.0,1.3,-37.0,17.1,1.4,-36.5,5.73,2.39,-34.1,22.3
2012-12-04 00:34:00,0.0,1.9239,0.0010,-1.00,0.00,-1.0,0.0,138.24,21.99,24.61,36.44,0.04,-272.74,-272.74,-33,567,-936,17.0,1.3,-36.8,17.1,1.4,-36.3,5.73,2.53,-34.0,22.3
2012-12-04 00:35:00,0.0,1.9240,0.0010,-1.00,0.00,-1.0,0.0,138.24,22.00,24.61,36.43,0.04,-272.73,-272.74,-33,567,-936,17.0,1.3,-36.7,17.1,1.4,-36.3,5.73,2.38,-34.1,22.3
2012-12-04 00:36:00,0.0,1.9237,0.0010,-1.00,0.00,-1.0,0.0,138.24,22.00,24.61,36.42,0.04,-272.74,-272.74,-33,567,-936,17.0,1.4,-36.6,17.1,1.4,-36.1,5.73,2.54,-34.1,22.3
2012-12-04 00:37:00,0.0,1.9242,0.0008,-1.00,0.00,-1.0,0.0,138.24,22.01,24.61,36.43,0.04,-272.74,-272.74,-33,567,-936,17.0,1.4,-36.6,17.1,1.4,-36.2,5.73,2.39,-34.1,22.3
2012-12-04 00:38:00,0.0,1.9241,0.0009,-1.00,0.00,-1.0,0.0,138.24,22.01,24.61,36.44,0.04,-272.73,-272.74,-33,567,-936,17.0,1.4,-36.5,17.1,1.4,-36.1,5.73,2.53,-34.1,22.3
2012-12-04 00:39:00,0.0,1.9238,0.0008,-1.00,0.00,-1.0,0.0,138.24,22.02,24.61,36.43,0.04,-272.74,-272.74,-33,567,-936,17.0,1.4,-36.6,17.1,1.4,-36.0,5.73,2.40,-34.1,22.4
2012-12-04 00:40:00,0.0,1.9244,0.0009,-1.00,0.00,-1.0,0.0,138.24,22.02,24.61,36.43,0.04,-272.74,-272.74,-33,567,-936,17.0,1.4,-36.6,17.1,1.4,-36.2,5.73,2.50,-34.1,22.4
2012-12-04 00:41:00,0.0,1.9240,0.0009,-1.00,0.00,-1.0,0.0,138.24,22.02,24.61,36.43,0.04,-272.74,-272.73,-33,567,-936,17.0,1.4,-36.6,17.1,1.4,-36.2,5.73,2.43,-34.1,22.4
2012-12-04 00:42:00,0.0,1.9242,0.0008,-1.00,0.00,-1.0,0.0,138.24,22.02,24.61,36.43,0.04,-272.74,-272.74,-34,567,-936,17.0,1.3,-36.8,17.1,1.4,-36.2,5.73,2.48,-34.1,22.4
2012-12-04 00:43:00,0.0,1.9241,0.0008,-1.00,0.00,-1.0,0.0,138.24,22.03,24.61,36.43,0.04,-272.74,-272.74,-33,567,-936,17.1,1.3,-36.8,17.1,1.4,-36.4,5.73,2.46,-34.1,22.4
2012-12-04 00:44:00,0.0,1.9239,0.0009,-1.00,0.00,-1.0,0.0,138.24,22.03,24.60,36.43,0.04,-272.74,-272.74,-34,567,-936,17.0,1.3,-37.2,17.1,1.3,-36.7,5.73,2.45,-34.1,22.4
2012-12-04 00:45:00,0.0,1.9237,0.0009,-1.00,0.00,-1.0,0.0,138.24,22.03,24.61,36.43,0.04,-272.74,-272.74,-33,567,-936,17.0,1.3,-37.4,17.1,1.3,-37.0,5.73,2.49,-34.0,22.4
2012-12-04 00:46:00,0.0,1.9239,0.0010,-1.00,0.00,-1.0,0.0,138.24,22.04,24.61,36.42,0.04,-272.74,-272.74,-34,567,-936,17.0,1.2,-37.5,17.1,1.3,-37.0,5.73,2.43,-34.1,22.4
2012-12-04 00:47:00,0.0,1.9243,0.0007,-1.00,0.00,-1.0,0.0,138.24,22.04,24.61,36.43,0.04,-272.74,-272.74,-33,567,-936,17.0,1.3,-37.4,17.1,1.3,-36.9,5.73,2.51,-34.1,22.4
2012-12-04 00:48:00,0.0,1.9244,0.0010,-1.00,0.00,-1.0,0.0,138.24,22.05,24.60,36.43,0.04,-272.73,-272.73,-33,567,-936,17.1,1.3,-37.1,17.1,1.3,-36.6,5.73,2.41,-34.1,22.3
2012-12-04 00:49:00,0.0,1.9240,0.0009,-1.00,0.00,-1.0,0.0,138.24,22.05,24.61,36.43,0.04,-272.74,-272.74,-33,567,-936,17.0,1.3,-36.9,17.1,1.4,-36.4,5.73,2.52,-34.1,22.4
2012-12-04 00:50:00,0.0,1.9240,0.0011,-1.00,0.00,-1.0,0.0,138.24,22.05,24.61,36.42,0.04,-272.74,-272.74,-33,567,-936,17.0,1.3,-36.7,17.2,1.4,-36.3,5.73,2.39,-34.1,22.3
2012-12-04 00:51:00,0.0,1.9236,0.0011,-1.00,0.00,-1.0,0.0,138.24,22.06,24.61,36.42,0.04,-272.74,-272.74,-33,567,-936,17.0,1.4,-36.5,17.1,1.4,-36.0,5.73,2.54,-34.1,22.3
2012-12-04 00:52:00,0.0,1.9240,0.0008,-1.00,0.00,-1.0,0.0,138.24,22.05,24.61,36.43,0.04,-272.74,-272.73,-33,567,-936,17.0,1.4,-36.4,17.2,1.4,-35.9,5.73,2.38,-34.1,22.4
2012-12-04 00:53:00,0.0,1.9242,0.0009,-1.00,0.00,-1.0,0.0,138.24,22.06,24.61,36.43,0.04,-272.74,-272.74,-33,567,-936,17.1,1.4,-36.1,17.2,1.5,-35.8,5.73,2.55,-34.1,22.4
2012-12-04 00:54:00,0.0,1.9238,0.0009,-1.00,0.00,-1.0,0.0,138.24,22.06,24.61,36.42,0.04,-272.74,-272.74,-33,567,-936,17.0,1.4,-36.1,17.2,1.5,-35.7,5.73,2.38,-34.1,22.4
2012-12-04 00:55:00,0.0,1.9242,0.0007,-1.00,0.00,-1.0,0.0,138.24,22.06,24.60,36.43,0.04,-272.73,-272.73,-33,567,-936,17.1,1.4,-36.0,17.2,1.5,-35.6,5.73,2.54,-34.1,22.3
2012-12-04 00:56:00,0.0,1.9236,0.0008,-1.00,0.00,-1.0,0.0,138.24,22.07,24.61,36.44,0.04,-272.74,-272.74,-33,567,-936,17.1,1.4,-36.1,17.2,1.5,-35.6,5.73,2.40,-34.1,22.4
2012-12-04 00:57:00,0.0,1.9241,0.0009,-1.00,0.00,-1.0,0.0,138.24,22.07,24.61,36.43,0.04,-272.74,-272.74,-34,567,-936,17.0,1.4,-36.2,17.2,1.5,-35.7,5.73,2.52,-34.1,22.4
2012-12-04 00:58:00,0.0,1.9239,0.0008,-1.00,0.00,-1.0,0.0,138.24,22.07,24.61,36.43,0.04,-272.73,-272.74,-33,567,-936,17.1,1.4,-36.3,17.2,1.5,-35.8,5.73,2.41,-34.1,22.4
2012-12-04 00:59:00,0.0,1.9237,0.0009,-1.00,0.00,-1.0,0.0,138.24,22.07,24.61,36.43,0.04,-272.74,-272.74,-34,567,-936,17.1,1.4,-36.6,17.2,1.4,-36.1,5.73,2.50,-34.1,22.3
2012-12-04 01:00:00,0.0,1.9236,0.0008,-1.00,0.00,-1.0,0.0,138.24,22.07,24.61,36.42,0.04,-272.74,-272.74,-33,567,-936,17.1,1.3,-37.0,17.2,1.4,-36.5,5.73,2.43,-34.1,22.4
2012-12-04 01:01:00,0.0,1.9238,0.0008,-1.00,0.00,-1.0,0.0,138.24,22.08,24.61,36.43,0.04,-272.74,-272.74,-34,567,-936,17.1,1.3,-37.4,17.2,1.3,-36.9,5.73,2.49,-34.1,22.4
2012-12-04 01:02:00,0.0,1.9240,0.0010,-1.00,0.00,-1.0,0.0,138.24,22.08,24.61,36.43,0.04,-272.74,-272.74,-33,567,-936,17.1,1.2,-37.7,17.2,1.3,-37.2,5.73,2.45,-34.1,22.4
2012-12-04 01:03:00,0.0,1.9242,0.0008,-1.00,0.00,-1.0,0.0,138.24,22.08,24.61,36.43,0.04,-272.74,-272.74,-34,567,-936,17.1,1.2,-37.9,17.2,1.2,-37.4,5.73,2.46,-34.1,22.4
2012-12-04 01:04:00,0.0,1.9243,0.0008,-1.00,0.00,-1.0,0.0,138.24,22.09,24.61,36.44,0.04,-272.74,-272.74,-33,567,-936,17.1,1.2,-38.1,17.2,1.2,-37.6,5.73,2.48,-34.1,22.4
2012-12-04 01:05:00,0.0,1.9244,0.0011,-1.00,0.00,-1.0,0.0,138.24,22.10,24.61,36.42,0.04,-272.74,-272.74,-33,567,-936,17.1,1.1,-38.3,17.2,1.2,-37.7,5.73,2.44,-34.1,22.4
2012-12-04 01:06:00,0.0,1.9246,0.0009,-1.00,0.00,-1.0,0.0,138.24,22.10,24.61,36.43,0.04,-272.74,-272.74,-33,567,-936,17.1,1.1,-38.3,17.2,1.2,-37.9,5.73,2.49,-34.1,22.4
2012-12-04 01:07:00,0.0,1.9242,0.0008,-1.00,0.00,-1.0,0.0,138.24,22.10,24.61,36.42,0.04,-272.74,-272.74,-33,567,-936,17.1,1.1,-38.5,17.2,1.2,-38.0,5.73,2.42,-34.1,22.4
2012-12-04 01:08:00,0.0,1.9242,0.0010,-1.00,0.00,-1.0,0.0,138.24,22.10,24.61,36.43,0.04,-272.74,-272.74,-34,567,-936,17.1,1.1,-38.5,17.2,1.2,-38.0,5.73,2.51,-34.1,22.4
2012-12-04 01:09:00,0.0,1.9242,0.0008,-1.00,0.00,-1.0,0.0,138.24,22.10,24.61,36.42,0.04,-272.74,-272.74,-33,567,-936,17.1,1.1,-38.3,17.2,1.2,-37.8,5.73,2.41,-34.1,22.4
2012-12-04 01:10:00,0.0,1.9241,0.0008,-1.00,0.00,-1.0,0.0,138.24,22.11,24.61,36.43,0.04,-272.74,-272.74,-34,567,-936,17.1,1.1,-38.2,17.2,1.2,-37.8,5.73,2.52,-34.1,22.4
2012-12-04 01:11:00,0.0,1.9242,0.0008,-1.00,0.00,-1.0,0.0,138.24,22.11,24.61,36.43,0.04,-272.74,-272.74,-33,567,-936,17.1,1.1,-38.2,17.2,1.2,-37.7,5.73,2.40,-34.1,22.4
2012-12-04 01:12:00,0.0,1.9241,0.0010,-1.00,0.00,-1.0,0.0,138.24,22.11,24.61,36.43,0.04,-272.74,-272.74,-34,567,-937,17.1,1.2,-38.1,17.2,1.2,-37.6,5.73,2.53,-34.1,22.4
2012-12-04 01:13:00,0.0,1.9239,0.0008,-1.00,0.00,-1.0,0.0,138.24,22.11,24.61,36.43,0.04,-272.74,-272.74,-33,567,-936,17.1,1.2,-38.1,17.2,1.2,-37.5,5.73,2.39,-34.1,22.4
2012-12-04 01:14:00,0.0,1.9243,0.0009,-1.00,0.00,-1.0,0.0,138.24,22.11,24.61,36.43,0.04,-272.74,-272.74,-34,567,-936,17.1,1.2,-37.9,17.2,1.2,-37.3,5.73,2.53,-34.1,22.4
2012-12-04 01:15:00,0.0,1.9242,0.0008,-1.00,0.00,-1.0,0.0,138.24,22.11,24.61,36.43,0.04,-272.74,-272.74,-33,567,-936,17.1,1.2,-37.8,17.2,1.2,-37.4,5.73,2.39,-34.1,22.4
2012-12-04 01:16:00,0.0,1.9239,0.0008,-1.00,0.00,-1.0,0.0,138.24,22.11,24.61,36.42,0.04,-272.73,-272.74,-34,567,-936,17.1,1.2,-37.8,17.2,1.2,-37.3,5.73,2.54,-34.1,22.4
2012-12-04 01:17:00,0.0,1.9238,0.0008,-1.00,0.00,-1.0,0.0,138.24,22.12,24.61,36.43,0.04,-272.74,-272.74,-33,567,-936,17.1,1.2,-37.7,17.2,1.3,-37.2,5.73,2.38,-34.1,22.4
2012-12-04 01:18:00,0.0,1.9237,0.0011,-1.00,0.00,-1.0,0.0,138.24,22.12,24.61,36.43,0.04,-272.74,-272.74,-33,567,-936,17.1,1.2,-37.6,17.2,1.3,-37.2,5.73,2.54,-34.1,22.4
2012-12-04 01:19:00,0.0,1.9244,0.0011,-1.00,0.00,-1.0,0.0,138.24,22.13,24.61,36.42,0.04,-272.74,-272.74,-34,567,-936,17.1,1.2,-37.6,17.2,1.3,-37.2,5.73,2.38,-34.1,22.4
2012-12-04 01:20:00,0.0,1.9242,0.0008,-1.00,0.00,-1.0,0.0,138.24,22.13,24.61,36.42,0.04,-272.74,-272.74,-33,567,-936,17.1,1.3,-37.3,17.2,1.3,-37.1,5.73,2.54,-34.1,22.4
2012-12-04 01:21:00,0.0,1.9246,0.0009,-1.00,0.00,-1.0,0.0,138.24,22.14,24.60,36.43,0.04,-272.74,-272.74,-34,567,-937,17.1,1.3,-37.4,17.2,1.3,-37.0,5.73,2.39,-34.1,22.4
2012-12-04 01:22:00,0.0,1.9246,0.0009,-1.00,0.00,-1.0,0.0,138.24,22.15,24.61,36.43,0.04,-272.74,-272.74,-33,567,-936,17.1,1.3,-37.4,17.2,1.3,-37.1,5.73,2.54,-34.1,22.4
2012-12-04 01:23:00,0.0,1.9247,0.0010,-1.00,0.00,-1.0,0.0,138.24,22.15,24.61,36.43,0.04,-272.74,-272.74,-34,567,-936,17.1,1.2,-37.4,17.2,1.3,-37.1,5.73,2.39,-34.1,22.4
2012-12-04 01:24:00,0.0,1.9247,0.0008,-1.00,0.00,-1.0,0.0,138.24,22.16,24.61,36.43,0.04,-272.74,-272.74,-33,567,-937,17.1,1.2,-37.6,17.2,1.3,-37.2,5.73,2.54,-34.1,22.5
2012-12-04 01:25:00,0.0,1.9244,0.0008,-1.00,0.00,-1.0,0.0,138.24,22.16,24.61,36.42,0.04,-272.73,-272.74,-34,567,-937,17.1,1.2,-37.5,17.2,1.3,-37.2,5.73,2.39,-34.1,22.4
2012-12-04 01:26:00,0.0,1.9245,0.0010,-1.00,0.00,-1.0,0.0,138.24,22.16,24.61,36.42,0.04,-272.73,-272.74,-33,567,-936,17.1,1.2,-37.8,17.2,1.3,-37.3,5.73,2.53,-34.1,22.4
2012-12-04 01:27:00,0.0,1.9245,0.0008,-1.00,0.00,-1.0,0.0,138.24,22.16,24.61,36.43,0.04,-272.74,-272.74,-34,567,-937,17.1,1.2,-37.9,17.2,1.2,-37.5,5.73,2.39,-34.1,22.4
2012-12-04 01:28:00,0.0,1.9246,0.0010,-1.00,0.00,-1.0,0.0,138.24,22.15,24.61,36.42,0.04,-272.74,-272.74,-33,567,-937,17.1,1.2,-38.1,17.2,1.2,-37.7,5.73,2.53,-34.1,22.4
2012-12-04 01:29:00,0.0,1.9243,0.0009,-1.00,0.00,-1.0,0.0,138.24,22.15,24.61,36.42,0.04,-272.74,-272.74,-33,567,-936,17.1,1.1,-38.2,17.2,1.2,-37.9,5.73,2.39,-34.1,22.4
2012-12-04 01:30:00,0.0,1.9245,0.0009,-1.00,0.00,-1.0,0.0,138.24,22.16,24.61,36.43,0.04,-272.74,-272.74,-34,567,-936,17.1,1.1,-38.2,17.2,1.2,-37.8,5.73,2.53,-34.1,22.4
2012-12-04 01:31:00,0.0,1.9242,0.0008,-1.00,0.00,-1.0,0.0,138.24,22.16,24.61,36.43,0.04,-272.74,-272.74,-33,567,-936,17.1,1.2,-38.2,17.2,1.2,-37.7,5.73,2.39,-34.1,22.4
2012-12-04 01:32:00,0.0,1.9241,0.0009,-1.00,0.00,-1.0,0.0,138.24,22.16,24.61,36.43,0.04,-272.74,-272.73,-34,567,-937,17.1,1.2,-38.0,17.2,1.2,-37.8,5.73,2.53,-34.1,22.5
2012-12-04 01:33:00,0.0,1.9242,0.0010,-1.00,0.00,-1.0,0.0,138.24,22.16,24.61,36.43,0.04,-272.74,-272.74,-33,567,-936,17.1,1.2,-38.1,17.2,1.2,-37.7,5.73,2.39,-34.1,22.5
2012-12-04 01:34:00,0.0,1.9244,0.0008,-1.00,0.00,-1.0,0.0,138.24,22.16,24.61,36.43,0.04,-272.74,-272.74,-34,567,-937,17.1,1.1,-38.3,17.2,1.2,-37.8,5.73,2.53,-34.1,22.5
2012-12-04 01:35:00,0.0,1.9247,0.0009,-1.00,0.00,-1.0,0.0,138.24,22.17,24.61,36.42,0.04,-272.73,-272.74,-33,567,-937,17.1,1.1,-38.2,17.2,1.2,-37.7,5.73,2.40,-34.1,22.5
2012-12-04 01:36:00,0.0,1.9248,0.0008,-1.00,0.00,-1.0,0.0,138.24,22.18,24.61,36.43,0.04,-272.74,-272.74,-34,567,-937,17.1,1.1,-38.3,17.2,1.2,-37.8,5.73,2.53,-34.1,22.5
2012-12-04 01:37:00,0.0,1.9253,0.0008,-1.00,0.00,-1.0,0.0,138.24,22.18,24.61,36.43,0.04,-272.74,-272.74,-34,567,-937,17.1,1.1,-38.3,17.3,1.2,-38.0,5.73,2.39,-34.1,22.5
2012-12-04 01:38:00,0.0,1.9242,0.0008,-1.00,0.00,-1.0,0.0,138.24,22.19,24.61,36.42,0.04,-272.74,-272.74,-33,567,-937,17.1,1.1,-38.4,17.3,1.1,-38.1,5.73,2.53,-34.1,22.5
2012-12-04 01:39:00,0.0,1.9249,0.0011,-1.00,0.00,-1.0,0.0,138.24,22.19,24.61,36.43,0.04,-272.74,-272.74,-34,567,-936,17.1,1.1,-38.8,17.3,1.1,-38.4,5.73,2.39,-34.1,22.5
2012-12-04 01:40:00,0.0,1.9250,0.0008,-1.00,0.00,-1.0,0.0,138.24,22.19,24.61,36.42,0.04,-272.74,-272.74,-33,567,-937,17.1,1.1,-39.0,17.3,1.1,-38.5,5.73,2.53,-34.1,22.5
2012-12-04 01:41:00,0.0,1.9246,0.0011,-1.00,0.00,-1.0,0.0,138.24,22.19,24.61,36.42,0.04,-272.74,-272.74,-34,567,-937,17.1,1.1,-39.0,17.2,1.1,-38.8,5.73,2.39,-34.1,22.5
2012-12-04 01:42:00,0.0,1.9253,0.0008,-1.00,0.00,-1.0,0.0,138.24,22.19,24.61,36.43,0.04,-272.74,-272.74,-33,567,-937,17.1,1.1,-38.9,17.3,1.1,-38.7,5.73,2.54,-34.1,22.5
2012-12-04 01:43:00,0.0,1.9250,0.0010,-1.00,0.00,-1.0,0.0,138.24,22.19,24.61,36.43,0.04,-272.74,-272.74,-34,567,-937,17.1,1.1,-39.0,17.3,1.1,-38.7,5.73,2.39,-34.1,22.5
2012-12-04 01:44:00,0.0,1.9247,0.0008,-1.00,0.00,-1.0,0.0,138.24,22.20,24.61,36.43,0.04,-272.74,-272.74,-34,567,-937,17.2,1.1,-38.9,17.3,1.1,-38.7,5.73,2.54,-34.1,22.4
2012-12-04 01:45:00,0.0,1.9247,0.0008,-1.00,0.00,-1.0,0.0,138.24,22.21,24.61,36.42,0.04,-272.74,-272.74,-33,567,-937,17.1,1.1,-39.0,17.3,1.1,-38.7,5.73,2.38,-34.1,22.5
2012-12-04 01:46:00,0.0,1.9250,0.0009,-1.00,0.00,-1.0,0.0,138.24,22.21,24.61,36.42,0.04,-272.74,-272.74,-34,567,-937,17.2,1.1,-39.0,17.2,1.1,-38.7,5.73,2.54,-34.1,22.5
2012-12-04 01:47:00,0.0,1.9253,0.0009,-1.00,0.00,-1.0,0.0,138.24,22.22,24.61,36.43,0.04,-272.74,-272.74,-33,567,-937,17.1,1.1,-39.0,17.3,1.1,-38.7,5.73,2.39,-34.1,22.5
2012-12-04 01:48:00,0.0,1.9250,0.0009,-1.00,0.00,-1.0,0.0,138.24,22.22,24.61,36.43,0.04,-272.74,-272.73,-34,567,-936,17.1,1.1,-39.0,17.3,1.1,-38.7,5.73,2.54,-34.1,22.5
2012-12-04 01:49:00,0.0,1.9247,0.0009,-1.00,0.00,-1.0,0.0,138.24,22.22,24.61,36.43,0.04,-272.74,-272.74,-33,567,-937,17.2,1.1,-38.9,17.3,1.1,-38.6,5.73,2.38,-34.1,22.5
2012-12-04 01:50:00,0.0,1.9249,0.0009,-1.00,0.00,-1.0,0.0,138.24,22.22,24.60,36.43,0.04,-272.74,-272.74,-34,567,-937,17.1,1.1,-38.9,17.2,1.1,-38.5,5.73,2.53,-34.1,22.5
2012-12-04 01:51:00,0.0,1.9243,0.0007,-1.00,0.00,-1.0,0.0,138.24,22.22,24.61,36.43,0.04,-272.74,-272.74,-33,568,-936,17.2,1.1,-39.0,17.3,1.1,-38.7,5.73,2.39,-34.1,22.5
2012-12-04 01:52:00,0.0,1.9249,0.0009,-1.00,0.00,-1.0,0.0,138.24,22.23,24.60,36.43,0.04,-272.74,-272.74,-34,567,-937,17.1,1.1,-38.8,17.3,1.1,-38.5,5.73,2.54,-34.1,22.5
2012-12-04 01:53:00,0.0,1.9246,0.0008,-1.00,0.00,-1.0,0.0,138.24,22.23,24.61,36.42,0.04,-272.74,-272.74,-34,567,-937,17.2,1.1,-38.4,17.3,1.2,-38.1,5.73,2.39,-34.1,22.5
2012-12-04 01:54:00,0.0,1.9247,0.0009,-1.00,0.00,-1.0,0.0,138.24,22.24,24.60,36.43,0.04,-272.74,-272.74,-33,567,-936,17.2,1.2,-37.9,17.3,1.2,-37.5,5.73,2.54,-34.1,22.5
2012-12-04 01:55:00,0.0,1.9248,0.0008,-1.00,0.00,-1.0,0.0,138.24,22.24,24.61,36.42,0.04,-272.74,-272.74,-34,567,-937,17.2,1.2,-37.4,17.3,1.3,-37.1,5.73,2.39,-34.1,22.5
2012-12-04 01:56:00,0.0,1.9257,0.0014,-1.00,0.00,-1.0,0.0,138.24,22.24,24.61,36.43,0.04,-272.74,-272.74,-33,567,-937,17.2,1.3,-37.1,17.3,1.3,-36.8,5.73,2.53,-34.1,22.5
2012-12-04 01:57:00,0.0,1.9290,0.0010,-1.00,0.00,-1.0,0.0,138.24,22.25,24.61,36.42,0.04,-272.74,-272.74,-34,567,-937,17.2,1.3,-36.8,17.3,1.3,-36.6,5.73,2.39,-34.2,22.5
2012-12-04 01:58:00,0.0,1.9298,0.0008,-1.00,0.00,-1.0,0.0,138.24,22.25,24.61,36.43,0.04,-272.74,-272.74,-33,567,-937,17.2,1.4,-36.6,17.3,1.4,-36.2,5.73,2.53,-34.2,22.5
2012-12-04 01:59:00,0.0,1.9297,0.0011,-1.00,0.00,-1.0,0.0,138.24,22.25,24.61,36.42,0.04,-272.74,-272.74,-34,567,-937,17.2,1.4,-36.2,17.3,1.4,-36.0,5.73,2.38,-34.2,22.5
2012-12-04 02:00:00,0.0,1.9295,0.0010,-1.00,0.00,-1.0,0.0,138.24,22.26,24.61,36.42,0.04,-272.74,-272.74,-33,567,-937,17.2,1.4,-36.1,17.3,1.5,-35.8,5.73,2.54,-34.1,22.5
2012-12-04 02:01:00,0.0,1.9281,0.0008,-1.00,0.00,-1.0,0.0,138.24,22.26,24.61,36.43,0.04,-272.74,-272.74,-34,567,-937,17.2,1.4,-36.1,17.3,1.4,-35.9,5.73,2.39,-34.1,22.5
2012-12-04 02:02:00,0.0,1.9284,0.0011,-1.00,0.00,-1.0,0.0,138.24,22.27,24.61,36.42,0.04,-272.74,-272.74,-34,567,-937,17.2,1.4,-36.2,17.3,1.4,-35.9,5.73,2.54,-34.2,22.5
2012-12-04 02:03:00,0.0,1.9294,0.0008,-1.00,0.00,-1.0,0.0,138.24,22.27,24.61,36.42,0.04,-272.74,-272.74,-34,567,-937,17.2,1.4,-36.3,17.3,1.4,-36.0,5.73,2.39,-34.1,22.5
2012-12-04 02:04:00,0.0,1.9289,0.0008,-1.00,0.00,-1.0,0.0,138.24,22.27,24.61,36.43,0.04,-272.74,-272.74,-34,567,-937,17.2,1.4,-36.4,17.3,1.4,-36.1,5.73,2.54,-34.1,22.5
2012-12-04 02:05:00,0.0,1.9288,0.0010,-1.00,0.00,-1.0,0.0,138.24,22.27,24.61,36.43,0.04,-272.74,-272.74,-33,567,-937,17.2,1.3,-36.8,17.3,1.4,-36.4,5.73,2.38,-34.2,22.5
2012-12-04 02:06:00,0.0,1.9289,0.0011,-1.00,0.00,-1.0,0.0,138.24,22.27,24.61,36.42,0.04,-272.74,-272.74,-34,567,-937,17.2,1.3,-37.1,17.3,1.3,-36.8,5.73,2.54,-34.1,22.5
2012-12-04 02:07:00,0.0,1.9282,0.0010,-1.00,0.00,-1.0,0.0,138.24,22.27,24.61,36.41,0.04,-272.74,-272.74,-33,567,-937,17.2,1.2,-37.4,17.3,1.3,-37.1,5.73,2.39,-34.2,22.5
2012-12-04 02:08:00,0.0,1.9269,0.0010,-1.00,0.00,-1.0,0.0,138.24,22.27,24.61,36.43,0.04,-272.74,-272.74,-34,567,-937,17.2,1.2,-37.6,17.3,1.2,-37.3,5.73,2.54,-34.2,22.5
2012-12-04 02:09:00,0.0,1.9273,0.0008,-1.00,0.00,-1.0,0.0,138.24,22.27,24.61,36.43,0.04,-272.74,-272.74,-34,568,-937,17.2,1.2,-37.7,17.3,1.2,-37.3,5.73,2.38,-34.2,22.5
2012-12-04 02:10:00,0.0,1.9268,0.0011,-1.00,0.00,-1.0,0.0,138.24,22.27,24.61,36.42,0.04,-272.74,-272.74,-34,567,-937,17.2,1.2,-37.8,17.3,1.2,-37.4,5.73,2.54,-34.1,22.5
2012-12-04 02:11:00,0.0,1.9264,0.0009,-1.00,0.00,-1.0,0.0,138.24,22.27,24.61,36.43,0.04,-272.74,-272.74,-34,567,-937,17.2,1.2,-37.8,17.3,1.2,-37.3,5.73,2.38,-34.2,22.5
2012-12-04 02:12:00,0.0,1.9269,0.0012,-1.00,0.00,-1.0,0.0,138.24,22.27,24.61,36.43,0.04,-272.74,-272.74,-33,567,-937,17.2,1.2,-37.8,17.3,1.2,-37.3,5.73,2.54,-34.2,22.5
2012-12-04 02:13:00,0.0,1.9270,0.0010,-1.00,0.00,-1.0,0.0,138.24,22.27,24.61,36.43,0.04,-272.74,-272.74,-34,567,-937,17.2,1.2,-37.8,17.3,1.2,-37.3,5.73,2.39,-34.2,22.5
2012-12-04 02:14:00,0.0,1.9268,0.0011,-1.00,0.00,-1.0,0.0,138.24,22.27,24.61,36.43,0.04,-272.74,-272.74,-33,568,-937,17.2,1.2,-37.7,17.3,1.2,-37.3,5.73,2.54,-34.2,22.6
2012-12-04 02:15:00,0.0,1.9259,0.0009,-1.00,0.00,-1.0,0.0,138.24,22.27,24.61,36.42,0.04,-272.74,-272.74,-34,567,-937,17.2,1.2,-37.8,17.3,1.2,-37.2,5.73,2.39,-34.2,22.6
2012-12-04 02:16:00,0.0,1.9267,0.0012,-1.00,0.00,-1.0,0.0,138.24,22.28,24.61,36.43,0.04,-272.74,-272.74,-33,567,-937,17.2,1.2,-37.8,17.3,1.2,-37.4,5.73,2.53,-34.2,22.6
2012-12-04 02:17:00,0.0,1.9269,0.0008,-1.00,0.00,-1.0,0.0,138.24,22.28,24.60,36.43,0.04,-272.74,-272.74,-34,567,-937,17.2,1.2,-38.1,17.3,1.2,-37.6,5.73,2.39,-34.2,22.6
2012-12-04 02:18:00,0.0,1.9258,0.0009,-1.00,0.00,-1.0,0.0,138.24,22.28,24.61,36.43,0.04,-272.74,-272.74,-34,567,-937,17.2,1.1,-38.3,17.3,1.2,-38.0,5.73,2.53,-34.2,22.6
2012-12-04 02:19:00,0.0,1.9272,0.0010,-1.00,0.00,-1.0,0.0,138.24,22.28,24.60,36.42,0.04,-272.73,-272.74,-33,567,-937,17.2,1.1,-38.6,17.3,1.1,-38.2,5.73,2.39,-34.2,22.6